Flag for Myanmar Weather past 2 weeks in Mandalay, Myanmar

Now
72 °F

Clear.


Feels Like: 75 °F
Forecast: 72 / 92 °F
Wind: 3 mph from West

Location: Chiang Mai Airport

Current Time: Mar 5, 2015 at 6:57:34 AM

Latest Report: Mar 5, 2015 at 6:30 AM


Visibility: 6 mi

Pressure: 29.92 "Hg

Humidity: 65%

Dew point: 59 °F

Location of MandalayLocation

Historic Weather in Mandalay — Graph

°F

Mandalay temperature yesterday

Maximum temperature yesterday: 99 °F (at 2:30 PM)
Minimum temperature yesterday: 70 °F (at 3:00 AM)
Average temperature yesterday: 86 °F

Past Weeks' High & Low Weather Summary

 TemperatureHumidityPressure
High99 °F (Mar 4, 2:30 PM)82% (Feb 20, 6:30 AM)30.07 "Hg (Feb 20, 6:30 AM)
Low57 °F (Feb 18, 5:30 AM)12% (Feb 24, 2:00 PM)29.71 "Hg (Mar 3, 4:30 PM)
Average78 °F43%29.92 "Hg
* Reported Feb 18 5:30 AM — Mar 5 6:00 AM, Mandalay, Weather by CustomWeather, © 2015

Note: Actual official high and low records may vary slightly from our data, if they occured in-between our weather recording intervals... More about our weather records

Advertising

Mandalay weather history for previous 24 hours

 ConditionsComfort  
Time TempWeatherWind HumidityBarometerVisibility
6:00 AM
Thu, Mar 5
70 °FPassing clouds.2 mph69%29.92 "Hg5 mi
5:30 AM73 °FPassing clouds.2 mph61%29.89 "HgN/A
5:00 AM73 °FPassing clouds.No wind57%29.89 "HgN/A
3:00 AM72 °FPassing clouds.2 mph61%29.86 "HgN/A
2:30 AM72 °FPassing clouds.1 mph61%29.86 "HgN/A
2:00 AM73 °FPassing clouds.2 mph57%29.86 "HgN/A
1:30 AM73 °FPassing clouds.2 mph57%29.86 "HgN/A
12:30 AM77 °FPassing clouds.1 mph51%29.89 "HgN/A
11:30 PM
Wed, Mar 4
81 °FPassing clouds.5 mph42%29.89 "HgN/A
11:00 PM82 °FPassing clouds.12 mph40%29.89 "HgN/A
10:30 PM90 °FPassing clouds.7 mph27%29.86 "HgN/A
10:00 PM90 °FPassing clouds.15 mph27%29.86 "HgN/A
9:30 PM90 °FPassing clouds.12 mph27%29.86 "HgN/A
9:00 PM90 °FPassing clouds.10 mph27%29.86 "HgN/A
8:30 PM88 °FPassing clouds.6 mph29%29.86 "HgN/A
8:00 PM90 °FPassing clouds.8 mph27%29.83 "HgN/A
7:30 PM90 °FPassing clouds.7 mph27%29.83 "HgN/A
7:00 PM91 °FPassing clouds.5 mph24%29.80 "HgN/A
6:30 PM93 °FPassing clouds.6 mph23%29.80 "HgN/A
6:00 PM95 °FPassing clouds.6 mph20%29.77 "HgN/A
5:30 PM97 °FPassing clouds.9 mph18%29.77 "HgN/A
5:00 PM99 °FPassing clouds.8 mph17%29.77 "HgN/A
4:30 PM99 °FPassing clouds.10 mph19%29.74 "HgN/A
4:00 PM99 °FScattered clouds.13 mph21%29.74 "Hg5 mi
3:30 PM99 °FScattered clouds.14 mph21%29.74 "Hg5 mi
3:00 PM99 °FScattered clouds.12 mph22%29.77 "Hg5 mi
2:30 PM99 °FPassing clouds.7 mph24%29.77 "Hg5 mi
2:00 PM97 °FPassing clouds.9 mph25%29.80 "Hg5 mi
1:30 PM97 °FPassing clouds.9 mph25%29.83 "Hg5 mi
1:00 PM95 °FPassing clouds.9 mph28%29.83 "Hg5 mi
12:30 PM95 °FSunny.9 mph28%29.86 "Hg2 mi
12:00 PM93 °FHaze.8 mph30%29.89 "Hg2 mi
11:30 AM91 °FHaze.7 mph34%29.89 "Hg2 mi
11:00 AM90 °FHaze.6 mph36%29.92 "Hg2 mi
10:30 AM90 °FHaze.6 mph36%29.92 "Hg2 mi
10:00 AM86 °FHaze.5 mph40%29.92 "Hg2 mi
9:30 AM86 °FHaze.3 mph40%29.95 "Hg2 mi
9:00 AM82 °FHaze.3 mph48%29.95 "Hg2 mi
8:30 AM79 °FHaze.2 mph51%29.92 "Hg2 mi
8:00 AM75 °FHaze.2 mph50%29.92 "Hg2 mi
7:30 AM73 °FHaze.No wind61%29.92 "Hg3 mi
7:00 AM70 °FFog.No wind69%29.89 "Hg3 mi
6:30 AM70 °FFog.2 mph69%29.89 "Hg2 mi
6:00 AM70 °FFog.2 mph69%29.86 "Hg2 mi
Weather by CustomWeather, © 2015

See weather overviewHow to use our weather pages